sat.trackr.live / text

‹ back to catalog

STARLINK-33946

NORAD 64034 · 2025-102N

PAYLOAD ACTIVE UNKNOWN

§ Identity

Operator
Country
US
Launch date
2025-05-16
Launch site
AFWTR
Launch vehicle
Mass (kg)
RCS (m²)

Purposes: comms

External: N2YO · Heavens-Above · Gunter

§ Orbital elements

Epoch: 2026-05-24T19:14:28.964832Z

Period
96.11 min
Inclination
70.0000°
Eccentricity
0.0003117
Mean motion
14.98326054 rev/d
Perigee alt
569.9 km
Apogee alt
574.2 km
Semi-major
6,950.2 km
B*
4.0036e-4
RAAN
282.5239°
Arg perigee
267.5990°
Mean anomaly
92.4812°
Rev number
5,740

§ Raw data

STARLINK-339461 64034U 25102N   26144.80172413  .00004687  00000+0  40036-3 0  99902 64034  70.0000 282.5239 0003117 267.5990  92.4812 14.98326054 57401

JSON: /api/v1/satellites/64034 · /tle

For live sub-satellite position, see the globe view (requires WebGL).

§ Visibility from observer

Set your observer location to see the next 7 days of passes ≥ 10°. The values pass through the URL so the page stays shareable.

No JS? Fill the form by hand. The geolocation button needs JavaScript.